Home > Weather > Legnica > Past weeks

Flag for Poland Weather for the Past 2 Weeks in Legnica, Poland

Now
48 °F

Clear.


Feels Like: 43 °F
Forecast: 41 / 64 °F
Wind: 12 mph from East

Location: Wroclaw Ii

Current Time: May 1, 2016 at 1:31:59 AM

Latest Report: May 1, 2016 at 12:30 AM


Visibility: 10 mi

Pressure: 30.12 "Hg

Humidity: 76%

Dew Point: 41 °F

Location of LegnicaLocation

Historic Weather in Legnica — Graph

°F

Legnica Temperature Yesterday

Maximum temperature yesterday: 63 °F (at 3:30 PM)
Minimum temperature yesterday: 36 °F (at 1:30 AM)
Average temperature yesterday: 51 °F

High & Low Weather Summary for the Past Weeks

 TemperatureHumidityPressure
High63 °F (Apr 30, 3:30 PM)100% (Apr 17, 4:00 AM)30.36 "Hg (Apr 17, 4:00 AM)
Low28 °F (Apr 25, 6:00 AM)31% (Apr 29, 6:30 PM)29.53 "Hg (Apr 26, 3:00 PM)
Average46 °F67%29.94 "Hg
* Reported Apr 15 11:00 PM — Apr 30 11:30 PM, Legnica, Weather by CustomWeather, © 2016

Note: Actual official high and low records may vary slightly from our data, if they occured in-between our weather recording intervals... More about our weather records

Advertising

Legnica Weather History for the Previous 24 Hours

Scroll right to see more
 ConditionsComfort  
Time TempWeatherWind HumidityBarometerVisibility
11:30 PM
Sat, Apr 30
50 °FClear.13 mph71%30.09 "Hg10 mi
11:00 PM50 °FClear.14 mph71%30.09 "Hg10 mi
10:30 PM52 °FClear.14 mph62%30.09 "Hg10 mi
10:00 PM54 °FClear.14 mph51%30.09 "Hg10 mi
9:30 PM50 °FClear.9 mph50%30.09 "Hg10 mi
9:00 PM50 °FSunny.9 mph54%30.09 "Hg10 mi
8:30 PM52 °FSunny.10 mph50%30.07 "Hg10 mi
8:00 PM54 °FSunny.10 mph47%30.07 "Hg10 mi
7:30 PM55 °FSunny.9 mph44%30.07 "Hg10 mi
7:00 PM59 °FSunny.10 mph39%30.07 "Hg10 mi
6:30 PM61 °FPassing clouds.9 mph39%30.07 "HgN/A
6:00 PM63 °FPassing clouds.9 mph37%30.07 "HgN/A
5:30 PM63 °FPassing clouds.10 mph37%30.07 "HgN/A
5:00 PM63 °FPassing clouds.6 mph37%30.07 "HgN/A
4:30 PM63 °FPassing clouds.8 mph34%30.07 "HgN/A
4:00 PM63 °FPassing clouds.10 mph37%30.09 "HgN/A
3:30 PM63 °FPassing clouds.13 mph39%30.09 "HgN/A
3:00 PM61 °FSunny.9 mph39%30.09 "Hg10 mi
2:30 PM61 °FSunny.12 mph36%30.09 "Hg10 mi
2:00 PM61 °FPassing clouds.9 mph39%30.09 "HgN/A
1:30 PM61 °FPassing clouds.13 mph42%30.09 "HgN/A
1:00 PM59 °FPassing clouds.7 mph39%30.12 "HgN/A
12:30 PM59 °FPassing clouds.12 mph42%30.12 "HgN/A
12:00 PM59 °FPassing clouds.12 mph42%30.12 "HgN/A
11:30 AM57 °FScattered clouds.9 mph55%30.12 "HgN/A
11:00 AM55 °FPassing clouds.10 mph59%30.15 "HgN/A
10:30 AM55 °FPassing clouds.10 mph59%30.15 "HgN/A
10:00 AM54 °FPassing clouds.12 mph63%30.15 "HgN/A
9:00 AM50 °FSunny.8 mph62%30.15 "Hg10 mi
8:30 AM48 °FSunny.10 mph66%30.15 "Hg10 mi
8:00 AM45 °FSunny.9 mph71%30.15 "Hg10 mi
7:30 AM45 °FSunny.9 mph71%30.15 "Hg10 mi
7:00 AM39 °FSunny.7 mph81%30.15 "Hg10 mi
6:30 AM37 °FSunny.3 mph81%30.15 "Hg10 mi
6:00 AM37 °FClear.3 mph81%30.15 "Hg10 mi
5:00 AM36 °FClear.2 mph81%30.15 "Hg10 mi
4:30 AM39 °FClear.3 mph75%30.15 "Hg10 mi
3:30 AM36 °FClear.6 mph81%30.15 "Hg10 mi
3:00 AM37 °FClear.6 mph81%30.12 "Hg10 mi
2:00 AM37 °FClear.3 mph81%30.12 "Hg10 mi
1:30 AM36 °FClear.1 mph87%30.12 "Hg10 mi
1:00 AM37 °FClear.1 mph81%30.12 "Hg10 mi
Weather by CustomWeather, © 2016

See weather overviewHow to use our weather pages